[[{"header":{"parameterUnit":"m.s-1","parameterCategory":1,"la1":30.2991,"la2":30.254,"lo1":-89.0895,"lo2":-89.0444,"dy":0.0017,"dx":0.0017,"nx":28,"ny":28,"refTime":"2025-08-05T21:00:00:Z","depth":0,"parameterNumber":2,"parameterNumberName":"U-component_of_WINDS"},"data":[0,0,0,0,0,0,0,0,0,0,0,0,0,0,0,0,0,0,0,0,0,0,0,0,0,0,0,0,0,0,0,0,0,0,0,0,0,0,0,0,0,0,0,0,0,0,0,0,0,0,0,0,0,0,0,0,0,0,1.9815,1.9814,0,1.9716,1.9715,1.9714,1.9663,1.9663,1.9663,1.9662,1.956,1.9558,1.9555,0,0,0,0,0,0,0,0,0,0,0,0,0,1.996,1.9958,1.9815,1.9814,1.9813,1.9717,1.9715,1.9714,1.9663,1.9663,1.9663,1.9662,1.9561,1.9558,1.9555,0,0,0,0,0,0,0,0,0,0,0,0,0,1.9883,1.9957,1.9815,1.9776,1.9771,1.9717,1.9715,1.9714,1.9663,1.9663,1.9663,1.9662,1.9562,1.9558,1.9554,1.9532,0,0,1.9542,1.954,0,0,0,0,0,0,0,0,1.9887,1.9877,1.9783,1.9778,1.9773,1.9702,1.9729,1.9653,1.9663,1.9704,1.9662,1.9662,1.9607,1.96,1.9581,1.9527,1.9523,1.9542,1.9539,1.9538,1.9536,0,0,0,0,0,0,0,1.9893,1.9881,1.9776,1.9781,1.9775,1.9763,1.9752,1.9714,1.9657,1.97,1.9696,1.9685,1.9605,1.9585,1.9578,1.9521,1.9542,1.9538,1.9536,1.9534,1.9445,1.9446,0,0,0,0,0,0,1.9904,1.9886,1.9779,1.9773,1.9831,1.976,1.9748,1.9725,1.9658,1.9647,1.9686,1.9683,1.9592,1.9583,1.9575,1.9544,1.9538,1.9534,1.9532,1.9445,1.9445,1.9446,0,0,0,0,0,0,1.9908,1.9895,1.9783,1.9829,1.9813,1.9758,1.9732,1.9723,1.9703,1.9646,1.9636,1.9676,1.9592,1.958,1.9543,1.954,1.9532,1.9528,1.9445,1.9445,1.9446,1.9484,0,0,0,0,0,0,1.9912,1.9897,1.9887,1.9829,1.9811,1.9753,1.9732,1.9721,1.9697,1.9693,1.9635,1.9625,1.9591,1.955,1.9539,1.9534,1.9525,1.9445,1.9445,1.9445,1.9482,1.9485,1.9487,0,0,0,0,0,1.9917,1.9901,1.9887,1.9874,1.9798,1.9753,1.9743,1.9704,1.9697,1.9687,1.9651,1.9627,1.9543,1.9546,1.9534,1.9528,1.9445,1.9445,1.9445,1.9481,1.9484,1.9487,0,0,0,0,0,0,1.9959,1.9892,1.9876,1.984,1.9803,1.9744,1.973,1.9708,1.9672,1.9669,1.9623,1.961,1.9578,1.9549,1.9554,1.9504,1.9492,1.949,1.9523,1.9526,1.9528,1.9535,1.9522,0,0,0,0,0,1.9964,1.9934,1.9877,1.9851,1.9833,1.9786,1.9764,1.9738,1.9697,1.9681,1.9642,1.9603,1.9568,1.9546,1.951,1.9479,1.9466,1.9469,1.9472,1.9474,1.9472,1.9455,1.9456,1.9446,1.9446,1.9446,0,0,1.9974,1.9934,1.9917,1.9859,1.9826,1.9796,1.9772,1.974,1.9717,1.9676,1.9638,1.9609,1.9563,1.9529,1.9513,1.9505,1.9473,1.9474,1.9477,1.9473,1.9455,1.9456,1.9457,1.9446,1.9446,1.9446,0,0,1.9976,1.9943,1.9918,1.9888,1.984,1.9809,1.9803,1.9749,1.9728,1.9691,1.9659,1.9632,1.9572,1.9541,1.9517,1.9512,1.9489,1.9502,1.9514,1.9497,1.9498,1.9499,1.9497,1.9497,1.9501,1.9501,1.9501,0,1.9994,1.9947,1.9908,1.9879,1.9854,1.9818,1.9793,1.9764,1.9708,1.9692,1.9685,1.961,1.9576,1.9536,1.9535,1.9517,1.9509,1.9507,1.9501,1.9501,1.9501,1.9499,1.9498,1.9502,1.9502,1.9502,1.9502,0,1.9972,1.994,1.9926,1.9873,1.9847,1.982,1.9778,1.9757,1.9734,1.9704,1.9668,1.9627,1.9583,1.9572,1.9548,1.9528,1.9525,1.951,1.9497,1.9505,1.9502,1.9501,1.9505,1.9504,1.9504,1.9503,0,0,1.9993,1.9923,1.9918,1.9895,1.9841,1.9816,1.9789,1.9747,1.973,1.9693,1.9669,1.9621,1.9608,1.9581,1.9555,1.9541,1.954,1.9528,1.9526,1.9531,1.9516,1.9526,1.9526,1.9526,1.9525,1.9525,1.9519,0,1.9987,1.9936,1.9902,1.9864,1.9835,1.9802,1.9778,1.9743,1.9715,1.9687,1.9656,1.9623,1.9608,1.9592,1.9577,1.9543,1.9536,1.9544,1.9502,1.9501,1.9513,1.9524,1.9534,1.953,1.9518,1.9518,1.9518,0,1.9972,1.9938,1.9898,1.985,1.9836,1.9815,1.9776,1.9749,1.971,1.9691,1.9663,1.9637,1.9607,1.9598,1.9557,1.9563,1.9545,1.9526,1.9525,1.9518,1.9508,1.9516,1.9528,1.9527,1.9515,1.9516,1.9516,0,1.9992,1.9936,1.9905,1.9886,1.9829,1.9816,1.9792,1.9752,1.973,1.9696,1.9681,1.9644,1.9623,1.9595,1.956,1.9557,1.9523,1.9511,1.9506,1.9507,1.9498,1.9499,1.9506,1.9489,1.9489,1.9489,1.9489,0,1.9988,1.9964,1.9913,1.9894,1.9867,1.983,1.9804,1.9777,1.9744,1.9719,1.9688,1.9666,1.9621,1.9594,1.9567,1.9537,1.9528,1.9512,1.9504,1.9513,1.9515,1.9499,1.9498,1.9489,1.9489,1.9489,1.9489,0,2.0004,1.9969,1.9933,1.9884,1.9871,1.9853,1.9811,1.9792,1.9764,1.9733,1.9724,1.968,1.9646,1.961,1.9563,1.9545,1.9516,1.9507,1.953,1.9525,1.9522,1.9522,1.9518,1.9515,1.9502,1.9502,1.9502,0,2.0002,1.9984,1.9934,1.9915,1.9893,1.9863,1.9842,1.9805,1.9784,1.9739,1.9725,1.969,1.9659,1.9607,1.9571,1.9535,1.9524,1.9525,1.9518,1.9528,1.9523,1.9524,1.9522,1.9526,1.9526,1.9527,1.9527,0,2.0004,1.9988,1.9958,1.9923,1.9898,1.9868,1.9837,1.9824,1.9781,1.9759,1.9725,1.9701,1.9655,1.962,1.9581,1.9556,1.9534,1.953,1.9527,1.9535,1.9549,1.954,1.9533,1.9529,1.9529,1.9529,1.9529,1.9529,2.001,1.9993,1.9956,1.9924,1.9897,1.987,1.9849,1.982,1.9791,1.9751,1.9732,1.9698,1.9662,1.9607,1.9584,1.9557,1.955,1.9545,1.9544,1.9543,1.9545,1.9555,1.955,1.955,1.9549,1.9549,1.9549,0,2.0009,1.9985,1.9956,1.9915,1.989,1.9874,1.984,1.982,1.9791,1.9759,1.973,1.9692,1.9659,1.9622,1.9586,1.9572,1.9561,1.9564,1.9563,1.9558,1.9554,1.956,1.9573,1.9573,1.9573,1.9573,1.9573,1.9573,2.0006,1.9976,1.9957,1.9914,1.9889,1.9857,1.9838,1.9813,1.9788,1.9747,1.9719,1.9696,1.9663,1.9625,1.9594,1.9584,1.9572,1.9578,1.9565,1.956,1.9558,1.9556,1.9562,1.9576,1.9576,1.9571,1.9571,1.9571]},{"header":{"parameterUnit":"m.s-1","parameterCategory":1,"la1":30.2991,"la2":30.254,"lo1":-89.0895,"lo2":-89.0444,"dy":0.0017,"dx":0.0017,"nx":28,"ny":28,"refTime":"2025-08-05T21:00:00:Z","depth":0,"parameterNumber":3,"parameterNumberName":"V-component_of_WINDS"},"data":[0,0,0,0,0,0,0,0,0,0,0,0,0,0,0,0,0,0,0,0,0,0,0,0,0,0,0,0,0,0,0,0,0,0,0,0,0,0,0,0,0,0,0,0,0,0,0,0,0,0,0,0,0,0,0,0,0,0,2.449,2.4491,0,2.4634,2.4636,2.4637,2.4716,2.4716,2.4716,2.4716,2.4852,2.4855,2.4858,0,0,0,0,0,0,0,0,0,0,0,0,0,2.4269,2.4273,2.449,2.4491,2.4493,2.4634,2.4636,2.4638,2.4716,2.4716,2.4716,2.4716,2.4851,2.4855,2.4859,0,0,0,0,0,0,0,0,0,0,0,0,0,2.4384,2.4274,2.4489,2.4549,2.4556,2.4633,2.4636,2.4638,2.4715,2.4716,2.4716,2.4716,2.4849,2.4854,2.4859,2.4884,0,0,2.4875,2.4877,0,0,0,0,0,0,0,0,2.4377,2.4392,2.4539,2.4545,2.4553,2.4658,2.4608,2.472,2.4715,2.4655,2.4716,2.4717,2.4786,2.4796,2.4822,2.489,2.4896,2.4875,2.4878,2.4881,2.4882,0,0,0,0,0,0,0,2.4369,2.4386,2.4546,2.4541,2.455,2.4565,2.4582,2.4629,2.4716,2.466,2.4666,2.4683,2.479,2.4817,2.4826,2.4898,2.4875,2.488,2.4883,2.4885,2.4993,2.4993,0,0,0,0,0,0,2.4353,2.4379,2.4542,2.4551,2.4465,2.4569,2.4587,2.4623,2.4716,2.4731,2.4682,2.4686,2.4808,2.482,2.4831,2.4867,2.4881,2.4885,2.4888,2.4993,2.4993,2.4993,0,0,0,0,0,0,2.4348,2.4367,2.4536,2.4467,2.4489,2.4572,2.4612,2.4626,2.4654,2.4733,2.4748,2.4695,2.4809,2.4824,2.4871,2.4872,2.4888,2.4892,2.4993,2.4993,2.4993,2.4937,0,0,0,0,0,0,2.4342,2.4365,2.4378,2.4467,2.4493,2.4577,2.4612,2.4629,2.4664,2.467,2.4749,2.4762,2.481,2.4863,2.4876,2.488,2.4896,2.4994,2.4993,2.4993,2.4939,2.4935,2.4931,0,0,0,0,0,2.4334,2.4354,2.4379,2.4398,2.4512,2.4577,2.4592,2.465,2.4663,2.4676,2.4726,2.476,2.487,2.4867,2.4883,2.4887,2.4994,2.4993,2.4993,2.4941,2.4936,2.4931,0,0,0,0,0,0,2.4259,2.4367,2.4395,2.4446,2.4502,2.459,2.4608,2.4643,2.4694,2.4697,2.4763,2.478,2.4821,2.4859,2.4854,2.4916,2.4935,2.4938,2.489,2.4886,2.4882,2.4872,2.4901,0,0,0,0,0,2.425,2.4298,2.4387,2.4423,2.445,2.4524,2.4554,2.4595,2.4654,2.4677,2.4732,2.4785,2.4832,2.4861,2.4908,2.4945,2.4962,2.4955,2.4951,2.4948,2.4949,2.497,2.4968,2.4991,2.4991,2.4991,0,0,2.4228,2.4293,2.4319,2.441,2.4458,2.4503,2.4543,2.4589,2.4622,2.4683,2.4733,2.4774,2.4837,2.4879,2.49,2.4912,2.4946,2.4947,2.4944,2.4947,2.497,2.4967,2.4965,2.4991,2.4991,2.4991,0,0,2.4213,2.4268,2.4304,2.4353,2.4427,2.4476,2.4484,2.4568,2.4599,2.465,2.4697,2.4734,2.4814,2.4857,2.4889,2.489,2.4922,2.4903,2.4882,2.4903,2.4901,2.4899,2.4899,2.4898,2.4904,2.4904,2.4904,0,2.4176,2.4251,2.4317,2.4361,2.4398,2.446,2.4495,2.4537,2.4621,2.4644,2.4657,2.4758,2.4805,2.4858,2.4858,2.4882,2.4891,2.4895,2.4896,2.4896,2.4895,2.4896,2.4896,2.4901,2.4902,2.4902,2.4902,0,2.4201,2.4251,2.4271,2.4356,2.4395,2.4434,2.4502,2.4533,2.457,2.4616,2.4666,2.4724,2.4785,2.48,2.4834,2.4857,2.4862,2.4884,2.4905,2.4889,2.4891,2.4892,2.4897,2.4898,2.4899,2.49,0,0,2.4144,2.4266,2.4272,2.4311,2.4398,2.4436,2.4475,2.4539,2.4564,2.4619,2.4652,2.4718,2.474,2.4776,2.4816,2.4833,2.4829,2.4853,2.4856,2.4847,2.4857,2.484,2.484,2.4851,2.4851,2.4852,2.4852,0,2.4141,2.4222,2.4283,2.4338,2.4384,2.4443,2.4477,2.4532,2.4575,2.4617,2.4663,2.471,2.4735,2.4757,2.4777,2.4826,2.4832,2.4826,2.488,2.4881,2.4864,2.4841,2.4823,2.4821,2.4853,2.4853,2.4853,0,2.4149,2.4208,2.4269,2.4352,2.4373,2.4404,2.4466,2.4507,2.4568,2.4598,2.464,2.4681,2.4722,2.4738,2.4794,2.4789,2.4814,2.4841,2.4842,2.4849,2.4867,2.4847,2.4821,2.4821,2.4855,2.4855,2.4854,0,2.4101,2.4194,2.4244,2.4275,2.4372,2.4392,2.4433,2.4495,2.4529,2.4582,2.4604,2.4659,2.4689,2.4728,2.4782,2.4789,2.4832,2.4853,2.4856,2.4854,2.4862,2.4861,2.484,2.4878,2.4878,2.4878,2.4878,0,2.4093,2.4128,2.4224,2.4254,2.4294,2.4361,2.4398,2.4442,2.4497,2.4534,2.4586,2.4618,2.4688,2.4727,2.4768,2.4808,2.4821,2.4844,2.4855,2.484,2.4837,2.4857,2.4859,2.4878,2.4878,2.4878,2.4878,0,2.4046,2.4112,2.417,2.4258,2.4281,2.4306,2.438,2.4409,2.4456,2.4502,2.4516,2.4588,2.4637,2.4695,2.4761,2.4789,2.4825,2.4841,2.4806,2.4812,2.4812,2.4811,2.4803,2.4805,2.4841,2.484,2.484,0,2.4037,2.4066,2.4159,2.419,2.423,2.4278,2.4314,2.438,2.4414,2.4487,2.4506,2.4561,2.4608,2.4683,2.4738,2.4789,2.4806,2.48,2.4814,2.4798,2.4806,2.4804,2.4807,2.4796,2.4796,2.4795,2.4795,0,2.4013,2.4044,2.4097,2.4161,2.4203,2.4255,2.4309,2.4329,2.4405,2.444,2.4494,2.4531,2.4601,2.4653,2.4711,2.4748,2.4783,2.479,2.4793,2.4779,2.4757,2.4769,2.4796,2.479,2.479,2.4791,2.4791,2.4791,2.3985,2.4014,2.4084,2.414,2.4188,2.4237,2.427,2.4322,2.4369,2.4435,2.4469,2.4522,2.458,2.4663,2.4698,2.4737,2.4749,2.4754,2.4755,2.4756,2.4751,2.4751,2.4748,2.4748,2.4748,2.4748,2.4749,0,2.3963,2.4012,2.4063,2.4139,2.4183,2.4216,2.4277,2.431,2.4357,2.4411,2.4457,2.4518,2.4568,2.4628,2.4682,2.4701,2.4719,2.4713,2.4712,2.472,2.4738,2.473,2.4699,2.4699,2.4699,2.4699,2.4699,2.4699,2.3958,2.4009,2.4048,2.4122,2.4169,2.4225,2.4257,2.4301,2.4345,2.4412,2.4456,2.4496,2.4551,2.461,2.4656,2.4672,2.4689,2.4679,2.4699,2.4715,2.4719,2.4723,2.4716,2.4682,2.4682,2.4679,2.4679,2.4679]}]]